{"data":{"norad_id":63168,"epoch":"2026-05-25T03:05:50.945568Z","epoch_age_seconds":57763,"freshness":"FRESH","line1":"1 63168U 25046K   26145.12906187  .00000056  00000+0  68760-4 0  9994","line2":"2 63168  88.9691 302.9796 0013199  25.4948 334.6851 13.51007178 69534","mean_motion":13.51007178,"eccentricity":0.0013199,"inclination_deg":88.9691,"raan_deg":302.9796,"arg_perigee_deg":25.4948,"mean_anomaly_deg":334.6851,"bstar":6.876e-5,"rev_number":6953,"period_min":106.58714649701,"perigee_km":1058.7263195352,"apogee_km":1078.3840976274,"semimajor_km":7446.6922085813,"source":"CELESTRAK","updated_at":"2026-05-25T13:38:03.540426Z"}}